contact:dominique.lefevre@mio.osupytheas.fr, maurice.libes@osupytheas.fr, didier.mallarino@osupytheas.fr
Project:EMSO http://www.emso-fr.org/EMSO-France
Depth: 2436.0 m
Title:EMSO Ligure Ouest : Data MII capteur MICROCAT
DateTime_Computer,Latitude,Longitude,Temperature,Conductivity,Pressure,DateTime_Instrument
DateTime_Computer,Latitude,Longitude,degC,S m-1,dbar,DateTime_Instrument
2021-12-29T00:00:23Z,42.805,6.029,13.2991,4.60019,2470.007,2021-12-29T02:01:53Z
2021-12-29T00:03:26Z,42.805,6.029,13.2992,4.60019,2469.993,2021-12-29T02:04:56Z
2021-12-29T00:06:29Z,42.805,6.029,13.2996,4.60020,2469.993,2021-12-29T02:07:59Z
2021-12-29T00:09:33Z,42.805,6.029,13.2998,4.60018,2469.97,2021-12-29T02:11:02Z
2021-12-29T00:12:36Z,42.805,6.029,13.2996,4.60017,2470.03,2021-12-29T02:14:05Z
2021-12-29T00:15:39Z,42.805,6.029,13.2992,4.60019,2469.993,2021-12-29T02:17:08Z
2021-12-29T00:18:42Z,42.805,6.029,13.2991,4.60019,2469.993,2021-12-29T02:20:11Z
2021-12-29T00:21:45Z,42.805,6.029,13.2993,4.60021,2469.993,2021-12-29T02:23:15Z
2021-12-29T00:24:48Z,42.805,6.029,13.2992,4.60018,2470.017,2021-12-29T02:26:18Z
2021-12-29T00:27:51Z,42.805,6.029,13.2992,4.60018,2469.993,2021-12-29T02:29:21Z
2021-12-29T00:30:54Z,42.805,6.029,13.2994,4.60019,2469.993,2021-12-29T02:32:24Z
2021-12-29T00:33:57Z,42.805,6.029,13.2996,4.60019,2470.04,2021-12-29T02:35:27Z
2021-12-29T00:37:01Z,42.805,6.029,13.2992,4.60020,2470.007,2021-12-29T02:38:30Z
2021-12-29T00:40:04Z,42.805,6.029,13.2993,4.60018,2470.053,2021-12-29T02:41:33Z
2021-12-29T00:43:07Z,42.805,6.029,13.2993,4.60019,2470.049,2021-12-29T02:44:36Z
2021-12-29T00:46:10Z,42.805,6.029,13.2991,4.60019,2470.017,2021-12-29T02:47:40Z
2021-12-29T00:49:13Z,42.805,6.029,13.2993,4.60019,2470.03,2021-12-29T02:50:43Z
2021-12-29T00:52:16Z,42.805,6.029,13.2991,4.60017,2470.03,2021-12-29T02:53:46Z
2021-12-29T00:55:19Z,42.805,6.029,13.2993,4.60021,2470.04,2021-12-29T02:56:49Z
2021-12-29T00:58:22Z,42.805,6.029,13.2993,4.60025,2470.04,2021-12-29T02:59:52Z
2021-12-29T01:01:26Z,42.805,6.029,13.2994,4.60019,2470.017,2021-12-29T03:02:55Z
2021-12-29T01:04:29Z,42.805,6.029,13.2993,4.60020,2470.04,2021-12-29T03:05:58Z
2021-12-29T01:07:32Z,42.805,6.029,13.2993,4.60019,2470.017,2021-12-29T03:09:01Z
2021-12-29T01:10:35Z,42.805,6.029,13.2993,4.60022,2470.053,2021-12-29T03:12:05Z
2021-12-29T01:13:38Z,42.805,6.029,13.2993,4.60019,2470.063,2021-12-29T03:15:08Z
2021-12-29T01:16:41Z,42.805,6.029,13.2992,4.60021,2470.04,2021-12-29T03:18:11Z
2021-12-29T01:19:44Z,42.805,6.029,13.2996,4.60019,2470.063,2021-12-29T03:21:14Z
2021-12-29T01:22:47Z,42.805,6.029,13.2997,4.60019,2470.053,2021-12-29T03:24:17Z
2021-12-29T01:25:51Z,42.805,6.029,13.2995,4.60019,2470.04,2021-12-29T03:27:20Z
2021-12-29T01:28:54Z,42.805,6.029,13.2992,4.60017,2470.04,2021-12-29T03:30:23Z
2021-12-29T01:31:57Z,42.805,6.029,13.2994,4.60019,2470.053,2021-12-29T03:33:26Z
2021-12-29T01:35:00Z,42.805,6.029,13.2991,4.60017,2470.077,2021-12-29T03:36:30Z
2021-12-29T01:38:03Z,42.805,6.029,13.2997,4.60019,2470.063,2021-12-29T03:39:33Z
2021-12-29T01:41:06Z,42.805,6.029,13.2996,4.60021,2470.063,2021-12-29T03:42:36Z
2021-12-29T01:44:09Z,42.805,6.029,13.2994,4.60022,2470.077,2021-12-29T03:45:39Z
2021-12-29T01:47:12Z,42.805,6.029,13.2991,4.60019,2470.063,2021-12-29T03:48:42Z
2021-12-29T01:50:16Z,42.805,6.029,13.2994,4.60019,2470.077,2021-12-29T03:51:45Z
2021-12-29T01:53:19Z,42.805,6.029,13.2994,4.60019,2470.073,2021-12-29T03:54:48Z
2021-12-29T01:56:22Z,42.805,6.029,13.2993,4.60019,2470.04,2021-12-29T03:57:51Z
2021-12-29T01:59:25Z,42.805,6.029,13.2993,4.60019,2470.11,2021-12-29T04:00:55Z
2021-12-29T02:02:28Z,42.805,6.029,13.2998,4.60018,2470.063,2021-12-29T04:03:58Z
2021-12-29T02:05:31Z,42.805,6.029,13.2996,4.60018,2470.133,2021-12-29T04:07:01Z
2021-12-29T02:08:34Z,42.805,6.029,13.2992,4.60020,2470.124,2021-12-29T04:10:04Z
2021-12-29T02:11:37Z,42.805,6.029,13.2994,4.60019,2470.133,2021-12-29T04:13:07Z
2021-12-29T02:14:41Z,42.805,6.029,13.2990,4.60021,2470.063,2021-12-29T04:16:10Z
2021-12-29T02:17:44Z,42.805,6.029,13.2999,4.60021,2470.077,2021-12-29T04:19:13Z
2021-12-29T02:20:47Z,42.805,6.029,13.2996,4.60017,2470.087,2021-12-29T04:22:16Z
2021-12-29T02:23:50Z,42.805,6.029,13.2996,4.60019,2470.063,2021-12-29T04:25:20Z
2021-12-29T02:26:53Z,42.805,6.029,13.2993,4.60020,2470.087,2021-12-29T04:28:23Z
2021-12-29T02:29:56Z,42.805,6.029,13.2996,4.60020,2470.04,2021-12-29T04:31:26Z
2021-12-29T02:32:59Z,42.805,6.029,13.2993,4.60019,2470.087,2021-12-29T04:34:29Z
2021-12-29T02:36:02Z,42.805,6.029,13.3000,4.60018,2470.096,2021-12-29T04:37:32Z
2021-12-29T02:39:06Z,42.805,6.029,13.2991,4.60022,2470.017,2021-12-29T04:40:35Z
2021-12-29T02:42:09Z,42.805,6.029,13.2994,4.60021,2470.077,2021-12-29T04:43:38Z
2021-12-29T02:45:12Z,42.805,6.029,13.2996,4.60018,2470.063,2021-12-29T04:46:41Z
2021-12-29T02:48:15Z,42.805,6.029,13.2994,4.60019,2470.087,2021-12-29T04:49:45Z
2021-12-29T02:51:18Z,42.805,6.029,13.2993,4.60021,2470.053,2021-12-29T04:52:48Z
2021-12-29T02:54:21Z,42.805,6.029,13.2992,4.60016,2470.1,2021-12-29T04:55:51Z
2021-12-29T02:57:24Z,42.805,6.029,13.2996,4.60021,2470.063,2021-12-29T04:58:54Z
2021-12-29T03:00:27Z,42.805,6.029,13.2994,4.60019,2470.063,2021-12-29T05:01:57Z
2021-12-29T03:03:31Z,42.805,6.029,13.2996,4.60020,2470.087,2021-12-29T05:05:00Z
2021-12-29T03:06:34Z,42.805,6.029,13.2998,4.60019,2470.063,2021-12-29T05:08:03Z
2021-12-29T03:09:37Z,42.805,6.029,13.2996,4.60017,2470.053,2021-12-29T05:11:06Z
2021-12-29T03:12:40Z,42.805,6.029,13.2994,4.60019,2470.077,2021-12-29T05:14:09Z
2021-12-29T03:15:43Z,42.805,6.029,13.2999,4.60019,2470.087,2021-12-29T05:17:13Z
2021-12-29T03:18:46Z,42.805,6.029,13.2998,4.60017,2470.087,2021-12-29T05:20:16Z
2021-12-29T03:21:49Z,42.805,6.029,13.2992,4.60020,2470.063,2021-12-29T05:23:19Z
2021-12-29T03:24:52Z,42.805,6.029,13.2996,4.60020,2470.087,2021-12-29T05:26:22Z
2021-12-29T03:27:56Z,42.805,6.029,13.2996,4.60017,2470.087,2021-12-29T05:29:25Z
2021-12-29T03:30:59Z,42.805,6.029,13.2993,4.60022,2470.1,2021-12-29T05:32:28Z
2021-12-29T03:34:02Z,42.805,6.029,13.2999,4.60020,2470.04,2021-12-29T05:35:31Z
2021-12-29T03:37:05Z,42.805,6.029,13.2996,4.60021,2470.087,2021-12-29T05:38:34Z
2021-12-29T03:40:08Z,42.805,6.029,13.2995,4.60019,2470.063,2021-12-29T05:41:38Z
2021-12-29T03:43:11Z,42.805,6.029,13.2999,4.60017,2470.063,2021-12-29T05:44:41Z
2021-12-29T03:46:14Z,42.805,6.029,13.2997,4.60017,2470.077,2021-12-29T05:47:44Z
2021-12-29T03:49:17Z,42.805,6.029,13.2998,4.60019,2470.053,2021-12-29T05:50:47Z
2021-12-29T03:52:21Z,42.805,6.029,13.2995,4.60017,2470.063,2021-12-29T05:53:50Z
2021-12-29T03:55:24Z,42.805,6.029,13.2991,4.60021,2470.063,2021-12-29T05:56:53Z
2021-12-29T03:58:27Z,42.805,6.029,13.2996,4.60024,2470.1,2021-12-29T05:59:56Z
2021-12-29T04:01:30Z,42.805,6.029,13.2995,4.60017,2470.049,2021-12-29T06:02:59Z
2021-12-29T04:04:33Z,42.805,6.029,13.2994,4.60019,2470.077,2021-12-29T06:06:03Z
2021-12-29T04:07:36Z,42.805,6.029,13.2991,4.60016,2470.11,2021-12-29T06:09:06Z
2021-12-29T04:10:39Z,42.805,6.029,13.3000,4.60019,2470.04,2021-12-29T06:12:09Z
2021-12-29T04:13:42Z,42.805,6.029,13.2995,4.60020,2470.063,2021-12-29T06:15:12Z
2021-12-29T04:16:45Z,42.805,6.029,13.2994,4.60019,2470.04,2021-12-29T06:18:15Z
2021-12-29T04:19:49Z,42.805,6.029,13.2996,4.60019,2470.087,2021-12-29T06:21:18Z
2021-12-29T04:22:52Z,42.805,6.029,13.2993,4.60018,2470.063,2021-12-29T06:24:21Z
2021-12-29T04:25:55Z,42.805,6.029,13.2993,4.60019,2470.017,2021-12-29T06:27:24Z
2021-12-29T04:28:58Z,42.805,6.029,13.2994,4.60020,2470.077,2021-12-29T06:30:28Z
2021-12-29T04:32:01Z,42.805,6.029,13.2993,4.60019,2470.087,2021-12-29T06:33:31Z
2021-12-29T04:35:04Z,42.805,6.029,13.2996,4.60020,2470.077,2021-12-29T06:36:34Z
2021-12-29T04:38:07Z,42.805,6.029,13.2993,4.60019,2470.087,2021-12-29T06:39:37Z
2021-12-29T04:41:10Z,42.805,6.029,13.2994,4.60021,2470.063,2021-12-29T06:42:40Z
2021-12-29T04:44:14Z,42.805,6.029,13.2994,4.60017,2470.077,2021-12-29T06:45:43Z
2021-12-29T04:47:17Z,42.805,6.029,13.2996,4.60023,2470.077,2021-12-29T06:48:46Z
2021-12-29T04:50:20Z,42.805,6.029,13.2996,4.60021,2470.04,2021-12-29T06:51:49Z
2021-12-29T04:53:23Z,42.805,6.029,13.2995,4.60019,2470.063,2021-12-29T06:54:53Z
2021-12-29T04:56:26Z,42.805,6.029,13.2995,4.60019,2470.053,2021-12-29T06:57:56Z
2021-12-29T04:59:29Z,42.805,6.029,13.2995,4.60021,2470.017,2021-12-29T07:00:59Z
2021-12-29T05:02:32Z,42.805,6.029,13.2995,4.60019,2470.063,2021-12-29T07:04:02Z
2021-12-29T05:05:35Z,42.805,6.029,13.2991,4.60018,2470.026,2021-12-29T07:07:05Z
2021-12-29T05:08:39Z,42.805,6.029,13.2991,4.60017,2470.04,2021-12-29T07:10:08Z
2021-12-29T05:11:42Z,42.805,6.029,13.2996,4.60016,2470.017,2021-12-29T07:13:11Z
2021-12-29T05:14:45Z,42.805,6.029,13.2993,4.60018,2470.053,2021-12-29T07:16:14Z
2021-12-29T05:17:48Z,42.805,6.029,13.2993,4.60017,2470.04,2021-12-29T07:19:18Z
2021-12-29T05:20:51Z,42.805,6.029,13.2993,4.60016,2470.03,2021-12-29T07:22:21Z
2021-12-29T05:23:54Z,42.805,6.029,13.2995,4.60024,2470.017,2021-12-29T07:25:24Z
2021-12-29T05:26:57Z,42.805,6.029,13.2998,4.60021,2470.063,2021-12-29T07:28:27Z
2021-12-29T05:30:00Z,42.805,6.029,13.2998,4.60019,2470.007,2021-12-29T07:31:30Z
2021-12-29T05:33:04Z,42.805,6.029,13.2996,4.60021,2470.04,2021-12-29T07:34:33Z
2021-12-29T05:36:07Z,42.805,6.029,13.2992,4.60022,2470.053,2021-12-29T07:37:36Z
2021-12-29T05:39:10Z,42.805,6.029,13.2997,4.60019,2470.053,2021-12-29T07:40:39Z
2021-12-29T05:42:13Z,42.805,6.029,13.2994,4.60023,2470.04,2021-12-29T07:43:42Z
2021-12-29T05:45:16Z,42.805,6.029,13.2998,4.60020,2470.017,2021-12-29T07:46:46Z
2021-12-29T05:48:19Z,42.805,6.029,13.2994,4.60017,2470.04,2021-12-29T07:49:49Z
2021-12-29T05:51:22Z,42.805,6.029,13.2998,4.60019,2470.053,2021-12-29T07:52:52Z
2021-12-29T05:54:25Z,42.805,6.029,13.2991,4.60020,2470.077,2021-12-29T07:55:55Z
2021-12-29T05:57:29Z,42.805,6.029,13.2996,4.60021,2470.03,2021-12-29T07:58:58Z
2021-12-29T06:00:32Z,42.805,6.029,13.2994,4.60019,2470.04,2021-12-29T08:02:01Z
2021-12-29T06:03:35Z,42.805,6.029,13.2995,4.60019,2470.04,2021-12-29T08:05:04Z
2021-12-29T06:06:38Z,42.805,6.029,13.2993,4.60019,2470.04,2021-12-29T08:08:07Z
2021-12-29T06:09:41Z,42.805,6.029,13.2996,4.60018,2470.017,2021-12-29T08:11:11Z
2021-12-29T06:12:44Z,42.805,6.029,13.2993,4.60016,2470.053,2021-12-29T08:14:14Z
2021-12-29T06:15:47Z,42.805,6.029,13.2999,4.60016,2470.077,2021-12-29T08:17:17Z
2021-12-29T06:18:50Z,42.805,6.029,13.2995,4.60019,2470.04,2021-12-29T08:20:20Z
2021-12-29T06:21:53Z,42.805,6.029,13.2993,4.60018,2470.053,2021-12-29T08:23:23Z
2021-12-29T06:24:57Z,42.805,6.029,13.2994,4.60021,2470.03,2021-12-29T08:26:26Z
2021-12-29T06:28:00Z,42.805,6.029,13.2993,4.60017,2469.993,2021-12-29T08:29:29Z
2021-12-29T06:31:03Z,42.805,6.029,13.2995,4.60019,2470.03,2021-12-29T08:32:32Z
2021-12-29T06:34:06Z,42.805,6.029,13.2996,4.60019,2470.053,2021-12-29T08:35:36Z
2021-12-29T06:37:09Z,42.805,6.029,13.2996,4.60020,2470.053,2021-12-29T08:38:39Z
2021-12-29T06:40:12Z,42.805,6.029,13.2995,4.60017,2470.007,2021-12-29T08:41:42Z
2021-12-29T06:43:15Z,42.805,6.029,13.2996,4.60017,2470.04,2021-12-29T08:44:45Z
2021-12-29T06:46:19Z,42.805,6.029,13.2995,4.60021,2469.993,2021-12-29T08:47:48Z
2021-12-29T06:49:22Z,42.805,6.029,13.2993,4.60020,2470.04,2021-12-29T08:50:51Z
2021-12-29T06:52:25Z,42.805,6.029,13.2995,4.60017,2470.053,2021-12-29T08:53:54Z
2021-12-29T06:55:28Z,42.805,6.029,13.2998,4.60019,2470.067,2021-12-29T08:56:57Z
2021-12-29T06:58:31Z,42.805,6.029,13.2995,4.60017,2470.053,2021-12-29T09:00:01Z
2021-12-29T07:01:34Z,42.805,6.029,13.2995,4.60016,2470.007,2021-12-29T09:03:04Z
2021-12-29T07:04:37Z,42.805,6.029,13.2995,4.60018,2469.993,2021-12-29T09:06:07Z
2021-12-29T07:07:40Z,42.805,6.029,13.2997,4.60020,2469.97,2021-12-29T09:09:10Z
2021-12-29T07:10:43Z,42.805,6.029,13.2996,4.60020,2469.993,2021-12-29T09:12:13Z
2021-12-29T07:13:47Z,42.805,6.029,13.2994,4.60019,2470.017,2021-12-29T09:15:16Z
2021-12-29T07:16:50Z,42.805,6.029,13.2998,4.60018,2470.017,2021-12-29T09:18:19Z
2021-12-29T07:19:53Z,42.805,6.029,13.2998,4.60016,2470.007,2021-12-29T09:21:22Z
2021-12-29T07:22:56Z,42.805,6.029,13.2994,4.60018,2470.03,2021-12-29T09:24:26Z
2021-12-29T07:25:59Z,42.805,6.029,13.2998,4.60017,2469.96,2021-12-29T09:27:29Z
2021-12-29T07:29:02Z,42.805,6.029,13.2996,4.60016,2470.017,2021-12-29T09:30:32Z
2021-12-29T07:32:05Z,42.805,6.029,13.2996,4.60019,2470.017,2021-12-29T09:33:35Z
2021-12-29T07:35:08Z,42.805,6.029,13.2994,4.60019,2470.017,2021-12-29T09:36:38Z
2021-12-29T07:38:12Z,42.805,6.029,13.2995,4.60017,2469.993,2021-12-29T09:39:41Z
2021-12-29T07:41:15Z,42.805,6.029,13.2996,4.60017,2469.993,2021-12-29T09:42:44Z
2021-12-29T07:44:18Z,42.805,6.029,13.2995,4.60019,2470.03,2021-12-29T09:45:47Z
2021-12-29T07:47:21Z,42.805,6.029,13.2995,4.60017,2469.993,2021-12-29T09:48:51Z
2021-12-29T07:50:24Z,42.805,6.029,13.2994,4.60017,2469.993,2021-12-29T09:51:54Z
2021-12-29T07:53:27Z,42.805,6.029,13.2996,4.60017,2469.993,2021-12-29T09:54:57Z
2021-12-29T07:56:30Z,42.805,6.029,13.2997,4.60017,2470.03,2021-12-29T09:58:00Z
2021-12-29T07:59:33Z,42.805,6.029,13.2995,4.60017,2470.007,2021-12-29T10:01:03Z
2021-12-29T08:02:37Z,42.805,6.029,13.2998,4.60019,2470.007,2021-12-29T10:04:06Z
2021-12-29T08:05:40Z,42.805,6.029,13.2993,4.60019,2470.04,2021-12-29T10:07:09Z
2021-12-29T08:08:43Z,42.805,6.029,13.2993,4.60018,2469.97,2021-12-29T10:10:12Z
2021-12-29T08:11:46Z,42.805,6.029,13.2994,4.60017,2469.993,2021-12-29T10:13:15Z
2021-12-29T08:14:49Z,42.805,6.029,13.2993,4.60019,2469.984,2021-12-29T10:16:19Z
2021-12-29T08:17:52Z,42.805,6.029,13.2996,4.60017,2469.947,2021-12-29T10:19:22Z
2021-12-29T08:20:55Z,42.805,6.029,13.2991,4.60016,2469.923,2021-12-29T10:22:25Z
2021-12-29T08:23:58Z,42.805,6.029,13.2997,4.60016,2469.984,2021-12-29T10:25:28Z
2021-12-29T08:27:02Z,42.805,6.029,13.2998,4.60017,2469.947,2021-12-29T10:28:31Z
2021-12-29T08:30:05Z,42.805,6.029,13.2996,4.60018,2469.97,2021-12-29T10:31:34Z
2021-12-29T08:33:08Z,42.805,6.029,13.2993,4.60018,2469.947,2021-12-29T10:34:37Z
2021-12-29T08:36:11Z,42.805,6.029,13.2996,4.60017,2469.993,2021-12-29T10:37:41Z
2021-12-29T08:39:14Z,42.805,6.029,13.2996,4.60021,2470.007,2021-12-29T10:40:44Z
2021-12-29T08:42:17Z,42.805,6.029,13.2991,4.60017,2469.947,2021-12-29T10:43:47Z
2021-12-29T08:45:20Z,42.805,6.029,13.2994,4.60020,2469.947,2021-12-29T10:46:50Z
2021-12-29T08:48:23Z,42.805,6.029,13.2993,4.60016,2469.96,2021-12-29T10:49:53Z
2021-12-29T08:51:27Z,42.805,6.029,13.2996,4.60016,2469.993,2021-12-29T10:52:56Z
2021-12-29T08:54:30Z,42.805,6.029,13.2996,4.60018,2469.984,2021-12-29T10:55:59Z
2021-12-29T08:57:33Z,42.805,6.029,13.2993,4.60017,2469.947,2021-12-29T10:59:02Z
2021-12-29T09:00:36Z,42.805,6.029,13.2996,4.60020,2469.947,2021-12-29T11:02:06Z
2021-12-29T09:03:39Z,42.805,6.029,13.2995,4.60016,2469.947,2021-12-29T11:05:09Z
2021-12-29T09:06:42Z,42.805,6.029,13.2995,4.60016,2469.97,2021-12-29T11:08:12Z
2021-12-29T09:09:45Z,42.805,6.029,13.2994,4.60019,2469.96,2021-12-29T11:11:15Z
2021-12-29T09:12:48Z,42.805,6.029,13.2998,4.60016,2469.984,2021-12-29T11:14:18Z
2021-12-29T09:15:52Z,42.805,6.029,13.2994,4.60017,2469.937,2021-12-29T11:17:21Z
2021-12-29T09:18:55Z,42.805,6.029,13.2996,4.60016,2469.97,2021-12-29T11:20:24Z
2021-12-29T09:21:58Z,42.805,6.029,13.2995,4.60016,2469.97,2021-12-29T11:23:27Z
2021-12-29T09:25:01Z,42.805,6.029,13.2994,4.60016,2469.984,2021-12-29T11:26:31Z
2021-12-29T09:28:04Z,42.805,6.029,13.2996,4.60018,2469.984,2021-12-29T11:29:34Z
2021-12-29T09:31:07Z,42.805,6.029,13.2993,4.60016,2469.923,2021-12-29T11:32:37Z
2021-12-29T09:34:10Z,42.805,6.029,13.2996,4.60020,2469.947,2021-12-29T11:35:40Z
2021-12-29T09:37:14Z,42.805,6.029,13.2999,4.60016,2469.947,2021-12-29T11:38:43Z
2021-12-29T09:40:17Z,42.805,6.029,13.2997,4.60016,2469.96,2021-12-29T11:41:46Z
2021-12-29T09:43:20Z,42.805,6.029,13.2996,4.60016,2469.937,2021-12-29T11:44:49Z
2021-12-29T09:46:23Z,42.805,6.029,13.2996,4.60016,2469.97,2021-12-29T11:47:53Z
2021-12-29T09:49:26Z,42.805,6.029,13.2996,4.60017,2469.97,2021-12-29T11:50:56Z
2021-12-29T09:52:29Z,42.805,6.029,13.2991,4.60017,2469.947,2021-12-29T11:53:59Z
2021-12-29T09:55:32Z,42.805,6.029,13.2993,4.60017,2469.923,2021-12-29T11:57:02Z
2021-12-29T09:58:35Z,42.805,6.029,13.2993,4.60016,2469.984,2021-12-29T12:00:05Z
2021-12-29T10:01:39Z,42.805,6.029,13.2995,4.60017,2469.947,2021-12-29T12:03:08Z
2021-12-29T10:04:42Z,42.805,6.029,13.2996,4.60016,2469.96,2021-12-29T12:06:11Z
2021-12-29T10:07:45Z,42.805,6.029,13.2995,4.60016,2469.984,2021-12-29T12:09:14Z
2021-12-29T10:10:48Z,42.805,6.029,13.2993,4.60017,2469.947,2021-12-29T12:12:18Z
2021-12-29T10:13:51Z,42.805,6.029,13.2995,4.60018,2469.984,2021-12-29T12:15:21Z
2021-12-29T10:16:54Z,42.805,6.029,13.2993,4.60016,2469.997,2021-12-29T12:18:24Z
2021-12-29T10:19:57Z,42.805,6.029,13.2994,4.60016,2469.947,2021-12-29T12:21:27Z
2021-12-29T10:23:00Z,42.805,6.029,13.2995,4.60015,2469.97,2021-12-29T12:24:30Z
2021-12-29T10:26:04Z,42.805,6.029,13.2993,4.60016,2469.923,2021-12-29T12:27:33Z
2021-12-29T10:29:07Z,42.805,6.029,13.2996,4.60015,2469.947,2021-12-29T12:30:36Z
2021-12-29T10:32:10Z,42.805,6.029,13.2995,4.60016,2469.923,2021-12-29T12:33:39Z
2021-12-29T10:35:13Z,42.805,6.029,13.2995,4.60016,2469.937,2021-12-29T12:36:43Z
2021-12-29T10:38:16Z,42.805,6.029,13.2996,4.60017,2469.9,2021-12-29T12:39:46Z
2021-12-29T10:41:19Z,42.805,6.029,13.2991,4.60017,2469.96,2021-12-29T12:42:49Z
2021-12-29T10:44:22Z,42.805,6.029,13.2993,4.60016,2469.947,2021-12-29T12:45:52Z
2021-12-29T10:47:25Z,42.805,6.029,13.2995,4.60019,2469.947,2021-12-29T12:48:55Z
2021-12-29T10:50:29Z,42.805,6.029,13.2996,4.60017,2469.947,2021-12-29T12:51:58Z
2021-12-29T10:53:32Z,42.805,6.029,13.2993,4.60016,2469.947,2021-12-29T12:55:01Z
2021-12-29T10:56:35Z,42.805,6.029,13.2993,4.60017,2469.914,2021-12-29T12:58:04Z
2021-12-29T10:59:38Z,42.805,6.029,13.2996,4.60019,2469.96,2021-12-29T13:01:08Z
2021-12-29T11:02:41Z,42.805,6.029,13.2998,4.60016,2469.97,2021-12-29T13:04:11Z
2021-12-29T11:05:44Z,42.805,6.029,13.2996,4.60016,2469.96,2021-12-29T13:07:14Z
2021-12-29T11:08:47Z,42.805,6.029,13.2991,4.60017,2469.984,2021-12-29T13:10:17Z
2021-12-29T11:11:50Z,42.805,6.029,13.2994,4.60017,2470.007,2021-12-29T13:13:20Z
2021-12-29T11:14:54Z,42.805,6.029,13.2995,4.60016,2469.947,2021-12-29T13:16:23Z
2021-12-29T11:17:57Z,42.805,6.029,13.3002,4.60016,2469.97,2021-12-29T13:19:26Z
2021-12-29T11:21:00Z,42.805,6.029,13.2995,4.60016,2469.947,2021-12-29T13:22:29Z
2021-12-29T11:24:03Z,42.805,6.029,13.2994,4.60016,2469.97,2021-12-29T13:25:33Z
2021-12-29T11:27:06Z,42.805,6.029,13.2996,4.60019,2469.97,2021-12-29T13:28:36Z
2021-12-29T11:30:09Z,42.805,6.029,13.2992,4.60016,2469.97,2021-12-29T13:31:39Z
2021-12-29T11:33:12Z,42.805,6.029,13.2991,4.60016,2469.947,2021-12-29T13:34:42Z
2021-12-29T11:36:16Z,42.805,6.029,13.2995,4.60016,2470.007,2021-12-29T13:37:45Z
2021-12-29T11:39:19Z,42.805,6.029,13.2996,4.60016,2469.947,2021-12-29T13:40:48Z
2021-12-29T11:42:22Z,42.805,6.029,13.2999,4.60017,2469.97,2021-12-29T13:43:51Z
2021-12-29T11:45:25Z,42.805,6.029,13.2996,4.60019,2469.984,2021-12-29T13:46:55Z
2021-12-29T11:48:28Z,42.805,6.029,13.2995,4.60016,2469.947,2021-12-29T13:49:58Z
2021-12-29T11:51:31Z,42.805,6.029,13.2994,4.60025,2469.993,2021-12-29T13:53:01Z
2021-12-29T11:54:34Z,42.805,6.029,13.2992,4.60019,2469.96,2021-12-29T13:56:04Z
2021-12-29T11:57:37Z,42.805,6.029,13.2998,4.60017,2469.97,2021-12-29T13:59:07Z
2021-12-29T12:00:41Z,42.805,6.029,13.3003,4.60016,2469.97,2021-12-29T14:02:10Z
2021-12-29T12:03:44Z,42.805,6.029,13.2991,4.60017,2469.984,2021-12-29T14:05:13Z
2021-12-29T12:06:47Z,42.805,6.029,13.2994,4.60017,2469.947,2021-12-29T14:08:16Z
2021-12-29T12:09:50Z,42.805,6.029,13.2995,4.60016,2469.97,2021-12-29T14:11:20Z
2021-12-29T12:12:53Z,42.805,6.029,13.2996,4.60017,2469.947,2021-12-29T14:14:23Z
2021-12-29T12:15:56Z,42.805,6.029,13.2995,4.60018,2469.923,2021-12-29T14:17:26Z
2021-12-29T12:18:59Z,42.805,6.029,13.2993,4.60016,2469.993,2021-12-29T14:20:29Z
2021-12-29T12:22:02Z,42.805,6.029,13.2996,4.60016,2470.007,2021-12-29T14:23:32Z
2021-12-29T12:25:06Z,42.805,6.029,13.2998,4.60016,2469.97,2021-12-29T14:26:35Z
2021-12-29T12:28:09Z,42.805,6.029,13.2993,4.60021,2469.993,2021-12-29T14:29:38Z
2021-12-29T12:31:12Z,42.805,6.029,13.2998,4.60020,2469.97,2021-12-29T14:32:41Z
2021-12-29T12:34:15Z,42.805,6.029,13.2996,4.60016,2469.984,2021-12-29T14:35:45Z
2021-12-29T12:37:18Z,42.805,6.029,13.2995,4.60019,2469.947,2021-12-29T14:38:48Z
2021-12-29T12:40:21Z,42.805,6.029,13.2995,4.60017,2469.947,2021-12-29T14:41:51Z
2021-12-29T12:43:24Z,42.805,6.029,13.2999,4.60016,2469.97,2021-12-29T14:44:54Z
2021-12-29T12:46:28Z,42.805,6.029,13.2998,4.60019,2469.97,2021-12-29T14:47:57Z
2021-12-29T12:49:31Z,42.805,6.029,13.2996,4.60018,2469.97,2021-12-29T14:51:00Z
2021-12-29T12:52:34Z,42.805,6.029,13.2997,4.60016,2469.947,2021-12-29T14:54:03Z
2021-12-29T12:55:37Z,42.805,6.029,13.3000,4.60019,2469.97,2021-12-29T14:57:06Z
2021-12-29T12:58:40Z,42.805,6.029,13.2992,4.60016,2469.97,2021-12-29T15:00:10Z
2021-12-29T13:01:43Z,42.805,6.029,13.2996,4.60017,2469.984,2021-12-29T15:03:13Z
2021-12-29T13:04:46Z,42.805,6.029,13.2990,4.60021,2469.96,2021-12-29T15:06:16Z
2021-12-29T13:07:49Z,42.805,6.029,13.2993,4.60017,2469.96,2021-12-29T15:09:19Z
2021-12-29T13:10:52Z,42.805,6.029,13.2996,4.60017,2470.017,2021-12-29T15:12:22Z
2021-12-29T13:13:56Z,42.805,6.029,13.2996,4.60017,2470.007,2021-12-29T15:15:25Z
2021-12-29T13:16:59Z,42.805,6.029,13.2994,4.60022,2469.97,2021-12-29T15:18:28Z
2021-12-29T13:20:02Z,42.805,6.029,13.2991,4.60022,2469.947,2021-12-29T15:21:31Z
2021-12-29T13:23:05Z,42.805,6.029,13.2998,4.60021,2469.96,2021-12-29T15:24:35Z
2021-12-29T13:26:08Z,42.805,6.029,13.2996,4.60017,2469.947,2021-12-29T15:27:38Z
2021-12-29T13:29:11Z,42.805,6.029,13.2996,4.60019,2469.97,2021-12-29T15:30:41Z
2021-12-29T13:32:14Z,42.805,6.029,13.2995,4.60016,2469.984,2021-12-29T15:33:44Z
2021-12-29T13:35:18Z,42.805,6.029,13.2992,4.60017,2469.947,2021-12-29T15:36:47Z
2021-12-29T13:38:21Z,42.805,6.029,13.2998,4.60018,2469.993,2021-12-29T15:39:50Z
2021-12-29T13:41:24Z,42.805,6.029,13.2993,4.60017,2469.947,2021-12-29T15:42:53Z
2021-12-29T13:44:27Z,42.805,6.029,13.2995,4.60017,2469.993,2021-12-29T15:45:57Z
2021-12-29T13:47:30Z,42.805,6.029,13.2996,4.60018,2469.979,2021-12-29T15:49:00Z
2021-12-29T13:50:33Z,42.805,6.029,13.2996,4.60016,2469.947,2021-12-29T15:52:03Z
2021-12-29T13:53:36Z,42.805,6.029,13.2995,4.60018,2469.979,2021-12-29T15:55:06Z
2021-12-29T13:56:39Z,42.805,6.029,13.2996,4.60016,2470.007,2021-12-29T15:58:09Z
2021-12-29T13:59:43Z,42.805,6.029,13.2995,4.60020,2469.993,2021-12-29T16:01:12Z
2021-12-29T14:02:46Z,42.805,6.029,13.2996,4.60020,2469.97,2021-12-29T16:04:15Z
2021-12-29T14:05:49Z,42.805,6.029,13.2991,4.60017,2469.97,2021-12-29T16:07:18Z
2021-12-29T14:08:52Z,42.805,6.029,13.2996,4.60019,2469.97,2021-12-29T16:10:22Z
2021-12-29T14:11:55Z,42.805,6.029,13.2994,4.60017,2469.97,2021-12-29T16:13:25Z
2021-12-29T14:14:58Z,42.805,6.029,13.2993,4.60019,2469.97,2021-12-29T16:16:28Z
2021-12-29T14:18:01Z,42.805,6.029,13.2996,4.60019,2469.993,2021-12-29T16:19:31Z
2021-12-29T14:21:04Z,42.805,6.029,13.2993,4.60017,2469.993,2021-12-29T16:22:34Z
2021-12-29T14:24:08Z,42.805,6.029,13.2995,4.60019,2469.97,2021-12-29T16:25:37Z
2021-12-29T14:27:11Z,42.805,6.029,13.2998,4.60017,2469.947,2021-12-29T16:28:40Z
2021-12-29T14:30:14Z,42.805,6.029,13.2998,4.60019,2469.96,2021-12-29T16:31:43Z
2021-12-29T14:33:17Z,42.805,6.029,13.2993,4.60020,2469.984,2021-12-29T16:34:47Z
2021-12-29T14:36:20Z,42.805,6.029,13.2998,4.60016,2469.947,2021-12-29T16:37:50Z
2021-12-29T14:39:23Z,42.805,6.029,13.2993,4.60017,2469.97,2021-12-29T16:40:53Z
2021-12-29T14:42:26Z,42.805,6.029,13.2995,4.60016,2469.97,2021-12-29T16:43:56Z
2021-12-29T14:45:29Z,42.805,6.029,13.2991,4.60017,2469.984,2021-12-29T16:46:59Z
2021-12-29T14:48:33Z,42.805,6.029,13.2998,4.60017,2469.993,2021-12-29T16:50:02Z
2021-12-29T14:51:36Z,42.805,6.029,13.2998,4.60018,2469.993,2021-12-29T16:53:05Z
2021-12-29T14:54:39Z,42.805,6.029,13.2996,4.60017,2470.007,2021-12-29T16:56:09Z
2021-12-29T14:57:42Z,42.805,6.029,13.2996,4.60021,2469.97,2021-12-29T16:59:12Z
2021-12-29T15:00:45Z,42.805,6.029,13.2996,4.60018,2469.97,2021-12-29T17:02:15Z